COSMOS 1691 DEB, 16266

Orbit data source: Space-Track

COSMOS 1691 DEB, 16266 is space debris in LEO originally from a launch on Wed, 09 Oct 1985 UTC launched from the Plesetsk Missile And Space Complex (PKMTR). Debris objects in space refer to the collection of defunct objects orbiting the Earth. Examples of debris include non-operational satellites, rocket bodies, and fragments generated from explosions, collisions, or faulty payload assembly.

Loading next visibility...
Identifier
16266, 1985-094K
Orbit
LEO
Country
Flag of CISCIS
Related business
Manufacturer
Unknown
Mission
Spacecraft
Bus & Motor
Unknown
Mass
Unknown
Launch date (UTC)
1985-10-09 (40 years ago)
Launch vehicle
Unknown
Launch site
Plesetsk Missile And Space Complex (PKMTR)
Object type
Payload
Rocket body
Debris
Shape & HBR
Unknown
Radar Cross Section
Small (<0.1 m²)

Expand to show TLE details & history
Last TLE update: 11 hours ago

TLE from 11 hours ago
0 COSMOS 1691 DEB
1 16266U 85094K   25242.80492102  .00000232  00000-0  11706-2 0  9992
2 16266  82.5977  72.5629 0009274 286.7731  89.5409 12.66599704840723
Epoch: 2025-08-30T19:19Z
TLE epoch observation values (Epoch: 2025-08-30T19:19:05.176Z)
Latitude
16.26282°
Longitude
165.71862°
Altitude
1,397.87 km
Speed
7.162 km/s
True Right ascension
04h 58m 53s
True Declination
16° 10' 42"
Sunlit
Object was in daylight at epoch
Visualization orbit readout
Latitude
Unknown
Longitude
Unknown
Altitude
Unknown
Speed
Unknown
Apparent Right ascension
Unknown
Apparent Declination
Unknown
Sunlit
N/A
Visualization observer readout
Local Sidereal Time
22:14:51
Azimuth
Unknown
Elevation
Unknown
Doppler factor
Unknown
Orbital elements
Apogee altitude
1,400.343 km
Perigee altitude
1,385.929 km
Semi-major axis
7,771.273 km
Eccentricity
0.00093
Inclination
82.5977°
RAAN
72.5629°
Arg. of periapsis
286.7731°
True anomaly
89.64717°
Mean anomaly
89.5409°
Eccentric anomaly
89.59403°
Mean motion
3.16814 °/min
Orbital period
113.63 mins
BSTAR
0.0011706
Loading maneuver chart data...
Computing Atmospheric mass density...
Loading historical data...
Loading historical data...
Loading historical data...
Loading historical data...
Loading historical data...
Loading historical data...
Loading historical data...

Documentation

Showing up to 5 results
|